EW2910 Weather Reports


Display with metric or nautical units.
time (UTC)temp
F
wind
direction
speed
MPH
gust
MPH
rain 1hr
in
rain 24hr
in
rain mn
in
humidity
%
barometer
mb
20260505214617 82 79 4.0 9.0 0.00 0.00 0.00 58 1014.4
20260505213057 83 101 5.0 11.0 0.00 0.00 0.00 57 1014.5
20260505211614 84 79 2.0 7.0 0.00 0.00 0.00 53 1014.4
20260505210059 83 127 3.0 9.0 0.00 0.00 0.00 56 1014.5
20260505204602 84 96 5.0 11.0 0.00 0.00 0.00 55 1014.3
20260505203101 84 72 5.0 9.0 0.00 0.00 0.00 52 1014.3
20260505201615 85 46 1.0 10.0 0.00 0.00 0.00 52 1014.4
20260505200107 85 26 2.0 8.0 0.00 0.00 0.00 51 1014.5
20260505194607 84 0 2.0 11.0 0.00 0.00 0.00 53 1014.7
20260505193059 85 60 3.0 12.0 0.00 0.00 0.00 54 1015.0
20260505191600 84 97 0.0 12.0 0.00 0.00 0.00 54 1015.2
20260505184600 86 115 0.0 7.0 0.00 0.00 0.00 50 1015.4
20260505183100 84 77 3.0 7.0 0.00 0.00 0.00 53 1015.7
20260505181600 84 83 0.0 5.0 0.00 0.00 0.00 55 1015.8
20260505174600 81 0 1.0 6.0 0.00 0.00 0.00 59 1016.1
20260505173100 81 47 4.0 8.0 0.00 0.00 0.00 61 1016.3
20260505171600 81 91 4.0 9.0 0.00 0.00 0.00 60 1016.4
20260505164630 81 89 4.0 8.0 0.00 0.00 0.00 59 1016.6
20260505163058 82 104 4.0 10.0 0.00 0.00 0.00 59 1016.5
20260505161601 82 96 3.0 12.0 0.00 0.00 0.00 59 1016.5
20260505160109 81 80 5.0 11.0 0.00 0.00 0.00 59 1016.5
20260505153101 80 103 4.0 10.0 0.00 0.00 0.00 61 1016.6
20260505151611 80 0 2.0 11.0 0.00 0.00 0.00 62 1016.6
20260505140124 76 102 6.0 11.0 0.00 0.00 0.00 72 1016.2
20260505124605 71 76 4.0 9.0 0.00 0.00 0.00 83 1016.1
20260505123100 70 125 3.0 6.0 0.00 0.00 0.00 86 1016.2
20260505121600 69 84 0.0 4.0 0.00 0.00 0.00 89 1016.2
20260505120113 68 118 2.0 4.0 0.00 0.00 0.00 89 1015.9
20260505114601 67 0 0.0 3.0 0.00 0.00 0.00 90 1016.0
20260505113058 66 0 0.0 0.0 0.00 0.00 0.00 91 1015.8
20260505111557 65 0 0.0 1.0 0.00 0.00 0.00 93 1015.3
20260505110108 64 0 0.0 0.0 0.00 0.00 0.00 93 1015.2
20260505101601 63 0 0.0 0.0 0.00 0.00 0.00 92 1014.9
20260505100059 63 0 0.0 0.0 0.00 0.00 0.00 92 1014.9
20260505094603 64 0 0.0 0.0 0.00 0.00 0.00 92 1014.6
20260505093102 64 0 0.0 1.0 0.00 0.00 0.00 92 1014.7
20260505091614 64 0 0.0 0.0 0.00 0.00 0.00 91 1014.5
20260505090101 64 0 0.0 2.0 0.00 0.00 0.00 91 1014.6
20260505084559 64 0 0.0 1.0 0.00 0.00 0.00 90 1014.5
20260505083059 65 0 0.0 2.0 0.00 0.00 0.00 90 1014.6
20260505081601 64 85 0.0 2.0 0.00 0.00 0.00 90 1014.3
20260505080107 64 0 0.0 1.0 0.00 0.00 0.00 89 1014.4
20260505074559 64 0 0.0 2.0 0.00 0.00 0.00 89 1014.7
20260505073104 64 83 0.0 2.0 0.00 0.00 0.00 89 1014.6
20260505071557 64 0 0.0 0.0 0.00 0.00 0.00 89 1014.7
20260505070058 65 0 0.0 2.0 0.00 0.00 0.00 88 1014.6
20260505064601 65 0 0.0 3.0 0.00 0.00 0.00 87 1014.8
20260505063114 65 99 1.0 3.0 0.00 0.00 0.00 87 1015.1
20260505061607 66 95 0.0 4.0 0.00 0.00 0.00 87 1015.3
20260505060059 66 94 2.0 4.0 0.00 0.00 0.00 86 1015.4
20260505054611 66 92 1.0 4.0 0.00 0.00 0.00 87 1015.5
20260505053103 65 0 0.0 0.0 0.00 0.00 0.00 87 1015.7
20260505051601 65 0 0.0 0.0 0.00 0.00 0.00 86 1016.0
20260505041614 67 0 0.0 0.0 0.00 0.00 0.00 83 1016.3
20260505040109 67 108 0.0 3.0 0.00 0.00 0.00 83 1016.3
20260505034601 67 0 0.0 4.0 0.00 0.00 0.00 82 1016.2
20260505033109 68 86 2.0 5.0 0.00 0.00 0.00 82 1016.4
20260505031608 68 89 2.0 4.0 0.00 0.00 0.00 81 1016.4
20260505030113 68 84 1.0 6.0 0.00 0.00 0.00 81 1016.3
20260505024607 68 83 2.0 4.0 0.00 0.00 0.00 80 1016.4
20260505023058 68 0 1.0 4.0 0.00 0.00 0.00 80 1016.3
20260505021607 69 77 1.0 4.0 0.00 0.00 0.00 79 1016.3
20260505014609 70 101 2.0 6.0 0.00 0.00 0.00 77 1016.0
20260505013059 70 104 3.0 6.0 0.00 0.00 0.00 76 1015.8
20260505011607 70 91 3.0 8.0 0.00 0.00 0.00 75 1015.9
20260505010100 71 75 3.0 7.0 0.00 0.00 0.00 73 1015.6
20260505004558 71 112 3.0 7.0 0.00 0.00 0.00 73 1015.6
20260505003059 72 94 4.0 9.0 0.00 0.00 0.00 72 1015.5
20260505001559 72 133 6.0 11.0 0.00 0.00 0.00 70 1015.3
20260505000116 73 95 5.0 11.0 0.00 0.00 0.00 70 1014.9
20260504234602 74 96 5.0 9.0 0.00 0.00 0.00 68 1014.9
20260504233112 74 111 6.0 12.0 0.00 0.00 0.00 67 1014.7
20260504231601 75 85 5.0 13.0 0.00 0.00 0.00 65 1014.6
20260504230100 76 124 8.0 17.0 0.00 0.00 0.00 65 1014.6
20260504224609 77 132 6.0 12.0 0.00 0.00 0.00 64 1014.6
20260504223134 77 127 5.0 12.0 0.00 0.00 0.00 63 1014.7
20260504221558 77 98 7.0 13.0 0.00 0.00 0.00 62 1014.7
20260504220059 77 162 8.0 15.0 0.00 0.00 0.00 63 1014.6